[[{"header":{"parameterUnit":"m.s-1","parameterCategory":1,"la1":30.2991,"la2":30.254,"lo1":-89.0895,"lo2":-89.0444,"dy":0.0017,"dx":0.0017,"nx":28,"ny":28,"refTime":"2025-01-02T03:00:00:Z","depth":0,"parameterNumber":2,"parameterNumberName":"U-component_of_WINDS"},"data":[0,0,0,0,0,0,0,0,0,0,0,0,0,0,0,0,0,0,0,0,0,0,0,0,0,0,0,0,0,0,0,0,0,0,0,0,0,0,0,0,0,0,0,0,0,0,0,0,0,0,0,0,0,0,0,0,0,0,-1.6788,-1.6788,0,-1.6816,-1.6817,-1.6817,-1.6802,-1.6801,-1.6801,-1.68,-1.6829,-1.683,-1.6832,0,0,0,0,0,0,0,0,0,0,0,0,0,-1.6718,-1.672,-1.6788,-1.6788,-1.6788,-1.6816,-1.6817,-1.6817,-1.6802,-1.6801,-1.68,-1.68,-1.6829,-1.683,-1.6832,0,0,0,0,0,0,0,0,0,0,0,0,0,-1.6748,-1.672,-1.6788,-1.6784,-1.6784,-1.6816,-1.6817,-1.6817,-1.6803,-1.6801,-1.68,-1.6799,-1.6828,-1.683,-1.6832,-1.6869,0,0,-1.6839,-1.684,0,0,0,0,0,0,0,0,-1.6746,-1.675,-1.6785,-1.6785,-1.6785,-1.6804,-1.6803,-1.6834,-1.6803,-1.6796,-1.68,-1.6799,-1.6822,-1.6824,-1.6832,-1.687,-1.6871,-1.6839,-1.6841,-1.6842,-1.6842,0,0,0,0,0,0,0,-1.6744,-1.6749,-1.6799,-1.6785,-1.6785,-1.6781,-1.6784,-1.6809,-1.6815,-1.6796,-1.6795,-1.6799,-1.6822,-1.683,-1.6833,-1.6872,-1.6839,-1.6841,-1.6843,-1.6843,-1.6937,-1.6939,0,0,0,0,0,0,-1.6742,-1.6747,-1.6798,-1.68,-1.6762,-1.6783,-1.6786,-1.6799,-1.6814,-1.6816,-1.68,-1.6798,-1.6827,-1.683,-1.6834,-1.6875,-1.6842,-1.6844,-1.6845,-1.6936,-1.6938,-1.6939,0,0,0,0,0,0,-1.6741,-1.6747,-1.6797,-1.6773,-1.6779,-1.6785,-1.68,-1.68,-1.6809,-1.6817,-1.6818,-1.6808,-1.6826,-1.6831,-1.6859,-1.6876,-1.6845,-1.6847,-1.6935,-1.6937,-1.6938,-1.696,0,0,0,0,0,0,-1.6739,-1.6747,-1.6761,-1.6774,-1.6781,-1.6823,-1.6801,-1.6802,-1.6813,-1.6811,-1.6825,-1.6826,-1.6826,-1.6856,-1.6862,-1.6879,-1.6848,-1.6933,-1.6936,-1.6938,-1.6958,-1.6962,-1.6966,0,0,0,0,0,-1.6737,-1.6767,-1.6762,-1.6768,-1.6799,-1.6824,-1.6828,-1.6827,-1.6814,-1.6828,-1.6833,-1.6825,-1.6874,-1.6859,-1.6865,-1.6883,-1.6932,-1.6935,-1.6938,-1.6956,-1.6961,-1.6966,0,0,0,0,0,0,-1.6757,-1.6769,-1.6763,-1.6799,-1.681,-1.6821,-1.684,-1.6833,-1.6849,-1.6846,-1.6845,-1.6848,-1.6877,-1.6883,-1.6867,-1.6918,-1.6901,-1.6905,-1.6913,-1.6918,-1.6922,-1.692,-1.685,0,0,0,0,0,-1.6766,-1.6785,-1.6794,-1.6824,-1.683,-1.6834,-1.6845,-1.6843,-1.6855,-1.686,-1.6867,-1.6878,-1.6895,-1.6907,-1.6924,-1.6958,-1.696,-1.6973,-1.6978,-1.6981,-1.6984,-1.7,-1.7006,-1.6948,-1.6948,-1.6947,0,0,-1.6784,-1.6793,-1.6805,-1.6829,-1.6837,-1.6856,-1.6838,-1.686,-1.6874,-1.6863,-1.689,-1.6895,-1.6908,-1.6939,-1.6953,-1.6945,-1.7,-1.6984,-1.6987,-1.6988,-1.7003,-1.7009,-1.7014,-1.6949,-1.6949,-1.6949,0,0,-1.6827,-1.6836,-1.6861,-1.6869,-1.6882,-1.6884,-1.689,-1.6901,-1.6904,-1.6931,-1.6922,-1.6938,-1.6969,-1.6977,-1.6986,-1.7028,-1.702,-1.7033,-1.7055,-1.707,-1.7075,-1.7079,-1.7092,-1.7097,-1.7036,-1.7037,-1.7037,0,-1.6848,-1.6877,-1.6874,-1.6896,-1.6905,-1.6895,-1.692,-1.6928,-1.6946,-1.6952,-1.6943,-1.6979,-1.6987,-1.7019,-1.7029,-1.7036,-1.7042,-1.7032,-1.7074,-1.7078,-1.7082,-1.7094,-1.71,-1.7038,-1.7038,-1.7038,-1.7037,0,-1.69,-1.692,-1.6939,-1.6955,-1.6967,-1.699,-1.699,-1.7002,-1.6998,-1.7,-1.7026,-1.7035,-1.7052,-1.7059,-1.7057,-1.709,-1.7084,-1.7075,-1.7058,-1.7089,-1.71,-1.7105,-1.704,-1.7039,-1.7039,-1.7039,0,0,-1.6959,-1.6971,-1.6978,-1.6983,-1.6996,-1.7011,-1.7032,-1.7048,-1.7057,-1.7069,-1.7086,-1.711,-1.7101,-1.711,-1.7108,-1.7122,-1.7152,-1.7111,-1.7111,-1.7116,-1.7186,-1.7192,-1.7198,-1.7147,-1.7148,-1.7149,-1.7185,0,-1.7001,-1.7038,-1.7035,-1.707,-1.7086,-1.7076,-1.7094,-1.7102,-1.7104,-1.7118,-1.712,-1.7137,-1.7124,-1.713,-1.7143,-1.7146,-1.7166,-1.7143,-1.7161,-1.7162,-1.7158,-1.7204,-1.7212,-1.7245,-1.7189,-1.719,-1.7191,0,-1.7055,-1.7067,-1.7103,-1.711,-1.7117,-1.7133,-1.7146,-1.716,-1.7169,-1.7169,-1.7178,-1.7172,-1.7192,-1.7175,-1.7201,-1.7186,-1.7193,-1.7195,-1.7196,-1.7197,-1.7178,-1.7205,-1.7256,-1.726,-1.7198,-1.7198,-1.7197,0,-1.7091,-1.7117,-1.7141,-1.7146,-1.7155,-1.7166,-1.7171,-1.7178,-1.7187,-1.7198,-1.7203,-1.7217,-1.7224,-1.7234,-1.7232,-1.722,-1.7258,-1.7241,-1.7257,-1.7257,-1.7266,-1.7265,-1.7317,-1.7272,-1.7272,-1.7272,-1.7272,0,-1.7138,-1.716,-1.7157,-1.7172,-1.7195,-1.7191,-1.7214,-1.7217,-1.7223,-1.7237,-1.7229,-1.7242,-1.7239,-1.7252,-1.725,-1.7271,-1.7275,-1.7274,-1.7274,-1.7275,-1.7274,-1.7279,-1.7276,-1.7273,-1.7273,-1.7273,-1.7273,0,-1.7183,-1.7182,-1.7207,-1.7212,-1.7214,-1.723,-1.7235,-1.7248,-1.7248,-1.7266,-1.727,-1.727,-1.7284,-1.7283,-1.73,-1.7299,-1.7324,-1.7321,-1.7321,-1.7319,-1.7335,-1.7333,-1.7391,-1.7397,-1.735,-1.735,-1.7351,0,-1.7212,-1.7229,-1.7235,-1.7243,-1.7247,-1.7262,-1.727,-1.7266,-1.7274,-1.7284,-1.7295,-1.7308,-1.7319,-1.7342,-1.7344,-1.7356,-1.7352,-1.7371,-1.7354,-1.7353,-1.735,-1.7349,-1.7349,-1.7375,-1.7375,-1.7376,-1.7376,0,-1.7264,-1.7262,-1.7274,-1.7285,-1.7294,-1.7303,-1.7311,-1.7318,-1.7314,-1.7324,-1.7338,-1.7346,-1.7362,-1.7375,-1.7385,-1.7389,-1.7381,-1.7381,-1.7385,-1.7386,-1.7385,-1.7384,-1.7328,-1.738,-1.738,-1.7379,-1.7379,-1.7379,-1.7301,-1.7313,-1.7319,-1.7332,-1.7336,-1.7343,-1.7355,-1.7356,-1.7367,-1.7379,-1.7376,-1.7391,-1.7397,-1.741,-1.7414,-1.7426,-1.7419,-1.7425,-1.7426,-1.7428,-1.7429,-1.7383,-1.7428,-1.7428,-1.7428,-1.7427,-1.7427,0,-1.735,-1.7352,-1.7364,-1.7374,-1.7384,-1.7375,-1.7382,-1.7391,-1.7404,-1.741,-1.7419,-1.7434,-1.7446,-1.7447,-1.7458,-1.7466,-1.7463,-1.7469,-1.7468,-1.7468,-1.7435,-1.743,-1.7471,-1.7471,-1.7471,-1.7471,-1.7471,-1.7471,-1.7377,-1.7397,-1.7395,-1.7417,-1.7419,-1.7433,-1.7438,-1.7443,-1.7447,-1.7464,-1.7473,-1.7473,-1.7477,-1.7487,-1.7497,-1.7497,-1.75,-1.7508,-1.7506,-1.7475,-1.7471,-1.7467,-1.7461,-1.7509,-1.7509,-1.7538,-1.7538,-1.7538]},{"header":{"parameterUnit":"m.s-1","parameterCategory":1,"la1":30.2991,"la2":30.254,"lo1":-89.0895,"lo2":-89.0444,"dy":0.0017,"dx":0.0017,"nx":28,"ny":28,"refTime":"2025-01-02T03:00:00:Z","depth":0,"parameterNumber":3,"parameterNumberName":"V-component_of_WINDS"},"data":[0,0,0,0,0,0,0,0,0,0,0,0,0,0,0,0,0,0,0,0,0,0,0,0,0,0,0,0,0,0,0,0,0,0,0,0,0,0,0,0,0,0,0,0,0,0,0,0,0,0,0,0,0,0,0,0,0,0,-1.4034,-1.4033,0,-1.3907,-1.3906,-1.3904,-1.3863,-1.3864,-1.3864,-1.3865,-1.3728,-1.3724,-1.3719,0,0,0,0,0,0,0,0,0,0,0,0,0,-1.4233,-1.423,-1.4035,-1.4033,-1.4031,-1.3907,-1.3906,-1.3904,-1.3863,-1.3864,-1.3865,-1.3865,-1.3729,-1.3724,-1.3719,0,0,0,0,0,0,0,0,0,0,0,0,0,-1.413,-1.4229,-1.4035,-1.3996,-1.3992,-1.3908,-1.3905,-1.3903,-1.3863,-1.3864,-1.3865,-1.3866,-1.3731,-1.3725,-1.3718,-1.3661,0,0,-1.3699,-1.3696,0,0,0,0,0,0,0,0,-1.4136,-1.4123,-1.4003,-1.3999,-1.3993,-1.3902,-1.3925,-1.3822,-1.3863,-1.3912,-1.3865,-1.3866,-1.3784,-1.3774,-1.3748,-1.3655,-1.3649,-1.3698,-1.3695,-1.3692,-1.369,0,0,0,0,0,0,0,-1.4144,-1.4128,-1.3984,-1.4002,-1.3996,-1.3982,-1.3969,-1.3905,-1.3844,-1.3907,-1.3904,-1.389,-1.3782,-1.3754,-1.3744,-1.3647,-1.3699,-1.3693,-1.3689,-1.3687,-1.3496,-1.3495,0,0,0,0,0,0,-1.4158,-1.4135,-1.3988,-1.398,-1.4069,-1.3978,-1.3963,-1.393,-1.3845,-1.3833,-1.3889,-1.3889,-1.3764,-1.3752,-1.3739,-1.3664,-1.3692,-1.3686,-1.3682,-1.3497,-1.3496,-1.3494,0,0,0,0,0,0,-1.4163,-1.4146,-1.3993,-1.4056,-1.4036,-1.3974,-1.3937,-1.3927,-1.39,-1.3831,-1.3819,-1.3873,-1.3764,-1.3748,-1.368,-1.3659,-1.3683,-1.3677,-1.3499,-1.3497,-1.3495,-1.3515,0,0,0,0,0,0,-1.4169,-1.4148,-1.4128,-1.4056,-1.4033,-1.3939,-1.3936,-1.3924,-1.389,-1.3887,-1.3813,-1.3801,-1.3764,-1.369,-1.3674,-1.365,-1.3672,-1.35,-1.3498,-1.3495,-1.3516,-1.3514,-1.3512,0,0,0,0,0,-1.4176,-1.4138,-1.4127,-1.4109,-1.4007,-1.3938,-1.3924,-1.3885,-1.3888,-1.3866,-1.3821,-1.3803,-1.3664,-1.3684,-1.3665,-1.3639,-1.3501,-1.3498,-1.3496,-1.3516,-1.3514,-1.3512,0,0,0,0,0,0,-1.4207,-1.4128,-1.4115,-1.4053,-1.4003,-1.3932,-1.3903,-1.3884,-1.383,-1.383,-1.378,-1.3764,-1.3699,-1.3662,-1.3686,-1.3577,-1.3581,-1.3575,-1.3603,-1.3601,-1.3599,-1.3608,-1.3667,0,0,0,0,0,-1.4207,-1.416,-1.4093,-1.4044,-1.402,-1.3966,-1.3934,-1.3908,-1.3853,-1.383,-1.3781,-1.3726,-1.3669,-1.3633,-1.3578,-1.351,-1.3491,-1.3483,-1.3481,-1.348,-1.3474,-1.3431,-1.3426,-1.3485,-1.3485,-1.3485,0,0,-1.4205,-1.4156,-1.413,-1.4049,-1.4007,-1.3956,-1.3948,-1.3896,-1.3856,-1.3822,-1.3755,-1.3716,-1.3651,-1.3583,-1.355,-1.355,-1.3453,-1.3476,-1.3476,-1.347,-1.3428,-1.3422,-1.3417,-1.3483,-1.3483,-1.3483,0,0,-1.4177,-1.4137,-1.4091,-1.4049,-1.3985,-1.3949,-1.3938,-1.3868,-1.3842,-1.3774,-1.3746,-1.3697,-1.3602,-1.3555,-1.3519,-1.347,-1.3449,-1.3453,-1.3442,-1.3401,-1.3397,-1.3392,-1.3371,-1.3364,-1.3447,-1.3448,-1.3448,0,-1.4183,-1.4108,-1.4069,-1.4017,-1.3981,-1.3948,-1.3899,-1.3859,-1.378,-1.3754,-1.3756,-1.3633,-1.3587,-1.3505,-1.3492,-1.3466,-1.3448,-1.3461,-1.3401,-1.3396,-1.3391,-1.337,-1.3363,-1.3448,-1.3448,-1.3448,-1.3448,0,-1.4117,-1.4065,-1.4035,-1.3961,-1.3921,-1.3871,-1.382,-1.3784,-1.376,-1.3722,-1.365,-1.3594,-1.3525,-1.3504,-1.348,-1.3417,-1.3418,-1.3411,-1.3414,-1.3387,-1.3366,-1.3358,-1.3449,-1.3449,-1.3449,-1.3448,0,0,-1.4105,-1.4008,-1.3998,-1.3962,-1.3888,-1.3846,-1.3792,-1.3726,-1.3694,-1.3639,-1.359,-1.3509,-1.3501,-1.346,-1.343,-1.3394,-1.3353,-1.3391,-1.3388,-1.3383,-1.3276,-1.328,-1.3272,-1.334,-1.3339,-1.3337,-1.328,0,-1.4065,-1.3971,-1.3932,-1.3854,-1.3804,-1.377,-1.3723,-1.367,-1.3633,-1.3581,-1.3539,-1.3481,-1.3476,-1.3451,-1.3414,-1.3367,-1.3331,-1.337,-1.329,-1.3288,-1.3306,-1.3262,-1.3266,-1.3215,-1.3272,-1.3271,-1.327,0,-1.4007,-1.3953,-1.3871,-1.38,-1.3777,-1.3736,-1.3669,-1.3622,-1.356,-1.3535,-1.3488,-1.3459,-1.3397,-1.3405,-1.3316,-1.3344,-1.3308,-1.328,-1.3277,-1.3266,-1.3276,-1.3247,-1.3199,-1.319,-1.3257,-1.3258,-1.3259,0,-1.4003,-1.391,-1.3848,-1.3818,-1.3735,-1.3706,-1.3669,-1.3608,-1.3569,-1.351,-1.3484,-1.3418,-1.3382,-1.333,-1.3282,-1.3293,-1.3196,-1.3201,-1.317,-1.3171,-1.315,-1.3152,-1.3093,-1.3132,-1.3132,-1.3132,-1.3132,0,-1.3962,-1.3912,-1.3844,-1.3806,-1.3747,-1.3701,-1.3643,-1.3604,-1.3549,-1.3499,-1.3466,-1.3419,-1.3361,-1.3305,-1.3267,-1.3197,-1.3181,-1.3156,-1.3146,-1.3158,-1.3161,-1.3133,-1.3134,-1.313,-1.313,-1.3131,-1.3131,0,-1.3948,-1.3902,-1.3831,-1.3757,-1.3737,-1.3697,-1.3632,-1.3591,-1.3551,-1.3488,-1.347,-1.3406,-1.3339,-1.3287,-1.3199,-1.3173,-1.3098,-1.3088,-1.3119,-1.3114,-1.3084,-1.3086,-1.3003,-1.2988,-1.304,-1.304,-1.3039,0,-1.3924,-1.3885,-1.3807,-1.3772,-1.3736,-1.368,-1.364,-1.3592,-1.3551,-1.3475,-1.3442,-1.3373,-1.3315,-1.3207,-1.3151,-1.3082,-1.3069,-1.3045,-1.3058,-1.307,-1.3065,-1.3067,-1.306,-1.3042,-1.3042,-1.3042,-1.3042,0,-1.3885,-1.3863,-1.3809,-1.3744,-1.3698,-1.3645,-1.3591,-1.3563,-1.3504,-1.3459,-1.3391,-1.3345,-1.3255,-1.3184,-1.3109,-1.3067,-1.3043,-1.3038,-1.3026,-1.3037,-1.3055,-1.3041,-1.3112,-1.304,-1.304,-1.304,-1.304,-1.304,-1.3863,-1.3825,-1.3764,-1.3702,-1.3657,-1.3606,-1.3563,-1.3517,-1.346,-1.3384,-1.3358,-1.3286,-1.3219,-1.3116,-1.3074,-1.3014,-1.3013,-1.2997,-1.2992,-1.2989,-1.2988,-1.3066,-1.3,-1.3,-1.3,-1.3,-1.3,0,-1.382,-1.3778,-1.3723,-1.3648,-1.3598,-1.3582,-1.352,-1.3478,-1.3416,-1.3358,-1.3301,-1.322,-1.315,-1.3088,-1.3015,-1.2978,-1.2965,-1.296,-1.2961,-1.2951,-1.2995,-1.3011,-1.2972,-1.2972,-1.2972,-1.2972,-1.2972,-1.2972,-1.3792,-1.3725,-1.3696,-1.3604,-1.3562,-1.3493,-1.3458,-1.3409,-1.3362,-1.3273,-1.3216,-1.3176,-1.3114,-1.3036,-1.297,-1.2953,-1.2926,-1.2923,-1.2903,-1.2945,-1.2948,-1.2952,-1.2966,-1.2919,-1.2919,-1.2863,-1.2863,-1.2863]}]]